Juneau, AK

6:17 AM AKDT on August 29, 2016 (GMT -0800)
Juneau International

Weather History for PAJN - January, 2014

Change the Weather History Date:

Thursday, January 9, 2014

  Actual Average Record
Temperature  
Mean Temperature 37 °F 28 °F  
Max Temperature 39 °F 33 °F 45 °F (1981)
Min Temperature 34 °F 24 °F -5 °F (1950)
Degree Days  
Heating Degree Days 28 37  
Month to date heating degree days 257 333  
Since 1 July heating degree days 3882 4054  
Moisture  
Dew Point 34 °F    
Average Humidity 93    
Maximum Humidity 100    
Minimum Humidity 85    
Precipitation  
Precipitation 0.32 in 0.17 in 0.94 in (1962)
Month to date precipitation 3.26 1.57  
Year to date precipitation 3.26 1.57  
Snow  
Snow 0.00 in 0.80 in 9.00 in (1965)
Month to date snowfall 1.0 6.8  
Since 1 July snowfall 60.3 36.3  
Snow Depth 0.00 in    
Sea Level Pressure  
Sea Level Pressure 29.29 in    
Wind  
Wind Speed 6 mph (ENE)    
Max Wind Speed 13 mph    
Max Gust Speed 17 mph    
Visibility 8 miles    
Events Rain    
T = Trace of Precipitation, MM = Missing Value Source: NWS Daily Summary

Daily Weather History Graph

Daily Weather History Graph

Search for Another Location

Airport or City:

Trip Planner

Search our weather history database for the weather conditions in past years. The results will help you decide how hot, cold, wet, or windy it might be!

Date:

Astronomy

Jan. 09, 2014 Rise Set
Actual Time 8:40 AM AKST 3:30 PM AKST
Civil Twilight 7:50 AM AKST 4:21 PM AKST
Nautical Twilight 6:58 AM AKST 5:13 PM AKST
Astronomical Twilight 6:10 AM AKST 6:01 PM AKST
Moon 11:33 AM AKST (1/9) 2:20 AM AKST (1/9)
Length of Visible Light 8h 30m
Length of Day
6h 50m
Waxing Gibbous, 67% of the Moon is Illuminated
Jan 9
Waxing Gibbous
Jan 15
Full
Jan 23
Last Quarter
Jan 30
New
Feb 6
First Quarter

Hourly Weather History & Observations

Time (AKST) Temp. Windchill Dew Point Humidity Pressure Visibility Wind Dir Wind Speed Gust Speed Precip Events Conditions
12:31 AM 34.0 °F 31.0 °F 32.0 °F 92% 29.19 in 6.0 mi West 3.5 mph - 0.01 in Rain Light Rain
12:53 AM 34.0 °F - 33.1 °F 96% 29.18 in 5.0 mi Calm Calm - 0.02 in Rain Light Rain
1:00 AM 34.0 °F - 33.1 °F 96% 29.18 in 5.0 mi Calm Calm - 0.00 in Rain Light Rain
1:14 AM 34.0 °F - 33.1 °F 96% 29.18 in 5.0 mi Calm Calm - 0.02 in Rain Light Rain
1:40 AM 34.0 °F - 33.1 °F 96% 29.18 in 5.0 mi Calm Calm - 0.03 in Rain Light Rain
1:53 AM 34.0 °F - 33.1 °F 96% 29.18 in 4.0 mi Calm Calm - 0.04 in Rain Light Rain
3:46 AM 35.1 °F - 34.0 °F 96% 29.18 in 7.0 mi Calm Calm - 0.02 in Rain Light Rain
3:53 AM 34.0 °F - 34.0 °F 100% 29.19 in 7.0 mi Calm Calm - 0.03 in Rain Light Rain
4:10 AM 35.1 °F - 33.1 °F 92% 29.19 in 4.0 mi Calm Calm - 0.01 in Rain Light Rain
4:18 AM 34.0 °F - 32.0 °F 92% 29.19 in 4.0 mi Calm Calm - 0.01 in Rain Light Rain
4:34 AM 34.0 °F - 34.0 °F 100% 29.19 in 7.0 mi Calm Calm - 0.02 in Rain Light Rain
4:53 AM 34.0 °F - 33.1 °F 96% 29.19 in 6.0 mi Calm Calm - 0.02 in Rain Light Rain
5:23 AM 35.1 °F - 34.0 °F 96% 29.19 in 4.0 mi Calm Calm - 0.02 in Rain Light Rain
5:53 AM 35.1 °F - 34.0 °F 96% 29.20 in 6.0 mi Calm Calm - 0.04 in Rain Light Rain
6:53 AM 37.0 °F 32.4 °F 35.1 °F 93% 29.21 in 10.0 mi ENE 5.8 mph - 0.03 in Rain Light Rain
7:53 AM 36.0 °F 31.1 °F 34.0 °F 93% 29.24 in 8.0 mi ENE 5.8 mph - 0.02 in Rain Light Rain
8:53 AM 36.0 °F 29.0 °F 34.0 °F 93% 29.26 in 6.0 mi ENE 9.2 mph - 0.05 in Rain Light Rain
9:53 AM 37.0 °F 31.0 °F 34.0 °F 89% 29.29 in 10.0 mi East 8.1 mph - 0.01 in Rain Light Rain
10:53 AM 37.0 °F 28.9 °F 35.1 °F 93% 29.31 in 10.0 mi East 12.7 mph - 0.00 in   Overcast
11:53 AM 37.9 °F 31.5 °F 35.1 °F 89% 29.32 in 10.0 mi East 9.2 mph - 0.01 in   Overcast
12:53 PM 37.9 °F 32.1 °F 35.1 °F 89% 29.34 in 10.0 mi ENE 8.1 mph - N/A   Overcast
2:53 PM 37.9 °F 32.1 °F 35.1 °F 89% 29.37 in 10.0 mi East 8.1 mph - 0.00 in   Overcast
3:53 PM 37.9 °F 32.1 °F 34.0 °F 86% 29.39 in 10.0 mi East 8.1 mph - N/A   Overcast
4:53 PM 37.0 °F 29.8 °F 34.0 °F 89% 29.39 in 10.0 mi East 10.4 mph - 0.00 in   Overcast
5:53 PM 37.0 °F 30.4 °F 34.0 °F 89% 29.39 in 10.0 mi NE 9.2 mph - N/A   Overcast
6:53 PM 37.0 °F 29.8 °F 34.0 °F 89% 29.39 in 10.0 mi ENE 10.4 mph - N/A   Overcast
7:53 PM 37.0 °F 30.4 °F 34.0 °F 89% 29.40 in 10.0 mi ENE 9.2 mph - 0.00 in Rain Light Rain
8:53 PM 37.0 °F 29.8 °F 34.0 °F 89% 29.42 in 10.0 mi ENE 10.4 mph - 0.00 in   Overcast
9:53 PM 37.0 °F 32.4 °F 34.0 °F 89% 29.44 in 10.0 mi NE 5.8 mph - N/A   Overcast
10:53 PM 37.0 °F 32.4 °F 34.0 °F 89% 29.45 in 10.0 mi East 5.8 mph - 0.00 in Rain Light Rain
11:17 PM 37.0 °F 31.6 °F 34.0 °F 89% 29.46 in 10.0 mi NE 6.9 mph - 0.00 in Rain Light Rain
11:28 PM 37.0 °F 31.6 °F 34.0 °F 89% 29.46 in 10.0 mi East 6.9 mph - 0.00 in   Overcast
11:53 PM 36.0 °F 32.1 °F 34.0 °F 93% 29.47 in 10.0 mi East 4.6 mph - 0.00 in Rain Light Rain